GFSNGP_850_spd_000.txt.gz
Wind_Speed
7 7 5 15 17 16 9 14 5 8 9 10 3 4 10 13 13 17 14 18 27 30 34 32 31 29 30 27 35 39 36 25 16 16 16 13 9 9 11 13 11 16 22 24
10 6 8 17 14 12 13 13 9 9 14 2 12 12 16 18 24 23 18 27 32 30 30 31 30 27 26 33 36 31 23 17 13 14 15 17 18 21 8 9 13 20 23 26
5 4 4 10 8 6 5 7 7 6 6 5 6 13 19 28 28 24 24 31 35 32 29 28 30 28 32 31 25 17 15 11 10 12 12 13 7 4 8 14 20 24 25 28
3 1 4 9 6 7 6 7 6 3 5 10 9 17 21 22 22 20 30 32 33 29 29 27 30 31 27 16 12 9 7 8 8 7 9 8 10 13 19 23 24 27 27 25
1 3 6 10 10 2 2 8 5 5 8 16 26 27 17 17 14 25 30 29 24 23 23 31 29 24 16 15 13 7 5 4 6 9 13 19 26 25 23 25 26 25 26 27
2 3 6 8 5 7 5 6 9 8 12 15 16 10 11 22 21 25 26 19 17 22 29 27 20 16 13 6 6 8 11 14 17 18 16 17 20 22 23 22 24 25 25 23
2 6 8 9 12 1 4 7 10 22 25 24 7 13 22 17 20 20 15 21 26 29 30 18 16 13 8 3 5 10 16 18 16 19 20 21 20 19 21 22 23 23 25 27
2 3 8 5 4 3 9 16 30 34 28 15 15 13 15 18 20 16 22 26 30 28 13 15 19 7 4 12 18 14 15 19 19 19 19 18 19 20 20 20 22 25 29 31
8 7 5 7 22 25 24 33 29 18 13 13 16 16 21 13 18 21 25 31 24 14 11 13 12 13 13 15 12 15 19 19 20 19 18 19 19 18 19 21 24 27 25 27
7 8 17 26 41 39 31 22 14 14 13 9 11 14 20 19 18 26 29 23 15 11 12 9 12 15 15 16 15 17 18 19 20 20 19 17 16 19 20 21 21 21 26 26
13 22 32 29 28 23 20 9 12 8 13 13 17 25 23 20 25 27 23 19 18 20 12 11 14 17 16 16 16 17 19 21 20 18 16 16 20 17 17 16 18 22 23 22
14 27 22 27 18 15 12 9 5 12 22 27 23 23 19 23 27 25 19 22 16 11 13 15 18 17 17 16 16 18 20 21 18 16 16 18 22 18 14 18 19 20 17 19
28 35 31 22 10 12 10 9 9 15 20 23 21 17 22 26 24 24 18 21 17 14 17 18 17 16 16 16 16 18 21 22 17 17 17 19 20 19 21 21 20 19 17 18
33 31 17 5 7 11 12 13 15 23 21 18 21 23 25 23 19 18 17 17 18 18 18 17 17 16 17 15 16 18 20 20 18 16 15 17 18 19 20 22 21 22 18 19
10 2 2 5 5 11 16 19 19 19 23 27 24 24 24 21 17 18 20 20 17 19 18 16 15 16 16 17 16 17 19 19 17 14 16 16 17 17 19 17 19 19 18 17
5 7 3 9 14 18 21 20 19 24 28 29 26 26 21 20 18 17 16 18 18 17 16 15 16 18 18 16 15 17 19 16 14 17 16 15 15 19 16 17 17 18 17 18
10 7 2 9 17 22 24 24 24 27 30 27 26 24 21 21 11 13 16 16 15 15 15 15 14 14 13 12 15 17 13 10 12 16 13 12 17 14 16 15 17 16 15 16
5 5 8 14 20 23 26 25 25 26 25 28 27 24 22 10 11 13 16 12 12 12 13 14 15 12 11 11 10 9 11 10 13 17 13 13 13 14 13 14 15 14 15 15
13 20 18 19 26 25 23 24 24 23 24 26 28 23 12 10 11 14 12 12 12 11 11 14 14 11 11 10 8 10 13 11 14 12 13 13 13 14 13 14 14 14 15 15
23 21 22 24 29 24 24 21 20 23 24 27 21 21 7 9 12 11 9 9 9 9 13 12 12 10 11 10 7 10 13 13 13 12 13 12 14 15 13 13 13 13 14 14
21 23 27 29 32 29 29 28 26 28 31 26 22 10 7 12 11 8 7 10 8 10 11 10 10 11 10 8 6 10 9 10 12 12 11 14 14 14 14 12 12 12 14 12
27 29 32 35 35 32 30 33 30 31 30 24 16 9 9 11 9 9 8 8 9 11 9 8 9 10 10 9 8 6 7 11 12 11 12 12 14 13 12 11 12 12 13 12
31 32 34 35 36 31 32 34 30 31 27 21 13 8 11 8 8 9 8 8 11 10 8 8 11 12 11 9 7 6 9 10 11 9 11 12 13 13 12 11 12 12 13 10
33 34 34 34 32 34 35 31 29 28 24 16 11 7 10 9 9 9 8 11 8 7 7 9 9 11 13 9 8 7 9 11 10 9 10 12 13 13 12 10 11 12 10 8
35 33 32 32 31 33 29 25 28 27 20 14 7 8 10 9 7 8 8 6 6 6 6 6 8 9 11 12 9 8 9 11 10 8 9 9 9 11 11 9 10 8 7 5
32 32 32 31 34 29 26 25 30 24 13 11 7 8 9 10 11 11 10 5 6 6 5 6 8 8 9 10 13 11 10 11 10 8 9 9 8 9 9 9 8 7 5 4
31 31 34 35 29 24 21 25 23 14 12 11 11 11 11 13 14 12 9 7 6 7 7 7 7 7 9 9 9 11 12 11 11 10 10 10 9 9 9 9 7 6 5 4

GFSNGP_850_spd_003.txt.gz
Wind_Speed
5 7 5 13 12 16 7 10 6 8 8 10 6 5 13 19 22 24 28 23 18 27 31 28 26 30 30 29 34 38 37 28 25 14 9 13 13 12 10 14 18 12 17 22
5 6 8 14 14 10 13 10 8 9 10 7 5 10 14 21 26 25 25 19 25 30 32 28 30 33 29 33 33 28 20 18 16 12 11 12 16 15 12 10 14 16 20 24
5 4 8 7 7 4 4 5 5 5 7 2 6 15 20 24 28 24 30 24 29 31 33 30 31 26 33 31 23 16 15 13 12 12 13 13 13 14 15 17 18 19 22 27
3 1 3 10 3 7 10 10 7 6 6 9 16 27 22 26 19 20 22 23 28 33 31 33 29 35 29 22 17 15 13 9 10 12 14 16 19 21 21 18 21 26 27 27
3 3 6 9 9 2 5 7 4 6 5 18 30 29 22 14 13 16 15 18 25 29 27 29 33 27 21 20 10 3 5 10 18 19 19 19 20 21 24 24 24 24 25 26
2 4 6 8 4 4 1 7 5 4 11 24 19 10 10 4 9 18 20 22 23 23 29 33 19 16 21 20 10 10 22 17 19 19 21 23 23 23 22 23 25 25 23 25
4 6 9 10 9 2 3 4 10 17 24 26 9 16 11 15 15 17 19 22 20 29 31 19 15 20 18 11 10 18 20 18 20 22 22 22 22 22 25 24 23 24 27 29
2 4 8 3 3 5 12 22 27 25 20 17 12 10 12 18 21 23 21 24 30 27 18 15 17 15 15 13 18 19 19 21 22 21 21 22 23 23 22 24 26 28 30 29
8 6 6 7 14 30 20 26 19 13 13 10 11 13 20 25 28 20 19 28 28 24 18 16 16 15 15 17 17 18 20 20 20 22 22 22 21 22 24 24 26 27 27 30
5 10 22 22 36 38 30 13 8 4 3 8 18 21 24 29 31 20 25 29 28 25 24 20 16 13 14 15 15 18 19 21 23 23 22 20 20 23 22 24 26 26 28 30
14 19 28 31 21 19 12 5 5 6 13 18 21 27 29 30 23 25 27 28 25 24 18 15 13 15 16 15 17 17 19 21 23 23 20 20 21 23 23 22 24 26 27 25
8 25 22 22 12 6 4 8 8 12 18 22 25 26 26 26 25 29 25 24 21 19 16 16 17 19 17 16 17 18 19 22 24 23 22 23 23 25 21 22 24 23 23 20
28 29 15 16 2 2 1 9 12 17 22 26 24 23 25 27 28 29 24 20 19 20 20 17 17 17 16 15 16 17 20 23 25 23 21 20 22 22 24 25 22 22 22 20
19 20 14 6 2 5 10 14 20 23 20 19 24 28 26 27 28 26 23 21 21 19 17 19 20 18 16 18 19 20 20 22 24 21 18 20 20 20 22 25 25 25 20 19
17 11 9 4 3 9 13 18 21 21 21 28 27 23 23 26 24 23 22 20 14 17 19 19 20 17 17 19 19 18 19 20 20 18 19 20 19 18 21 20 20 22 21 18
8 4 6 2 6 13 19 24 24 25 26 27 25 25 27 24 26 22 18 13 17 17 20 19 17 18 17 16 14 15 18 17 15 18 20 20 16 18 17 18 18 20 20 20
9 3 4 11 21 26 28 30 26 26 28 27 26 29 29 29 25 16 12 17 17 19 15 15 16 19 17 14 11 14 11 12 13 16 19 16 17 16 17 16 18 18 18 19
9 10 17 23 28 26 27 27 25 25 23 24 25 29 31 26 18 10 13 16 16 13 14 14 15 13 12 13 11 8 9 13 13 17 16 17 15 15 16 16 16 16 16 17
16 18 21 22 20 21 25 27 25 25 25 24 26 28 29 24 12 12 15 15 14 13 12 13 12 12 10 10 10 9 11 16 16 15 15 14 15 16 15 14 14 15 16 16
20 23 23 23 23 26 28 29 29 28 29 26 27 27 27 20 11 14 15 11 11 11 10 11 10 9 9 10 6 6 11 13 14 15 12 13 15 15 15 14 14 13 15 14
26 25 26 26 27 29 29 30 28 27 31 27 27 27 23 13 10 15 13 11 10 12 11 11 8 8 9 9 8 8 8 11 14 14 11 13 15 15 14 12 12 13 13 13
26 28 30 31 31 31 30 28 29 30 25 26 27 24 18 11 12 14 12 10 12 12 11 9 8 11 12 11 10 7 7 10 13 15 12 12 14 14 14 12 12 12 13 11
28 30 31 31 30 29 30 28 28 23 21 23 25 19 12 10 12 13 13 12 10 12 11 8 9 10 11 13 8 7 8 11 13 12 11 11 12 15 14 12 11 13 11 9
29 31 32 32 31 30 29 32 27 22 23 25 22 12 11 9 12 14 13 12 13 8 8 8 7 8 10 12 9 8 9 11 13 12 12 11 13 13 13 12 10 10 9 7
30 31 34 31 30 31 33 32 26 22 23 23 16 10 10 10 13 13 14 14 9 8 9 8 7 9 10 9 11 10 9 11 13 11 10 11 10 10 11 11 9 9 7 6
30 32 31 27 24 26 27 25 24 21 23 19 10 10 9 11 11 12 13 11 9 10 10 10 10 10 11 11 10 11 13 13 12 11 12 12 12 11 10 10 9 9 7 6
31 29 29 29 30 26 27 25 24 22 19 12 12 13 13 13 14 15 17 12 9 10 11 12 11 10 11 12 12 12 12 12 13 13 13 13 12 12 11 10 10 9 8 7

GFSNGP_850_spd_006.txt.gz
Wind_Speed
5 8 7 11 11 7 8 8 6 15 9 11 9 7 10 17 25 26 29 21 21 19 23 24 25 29 34 27 32 35 30 26 24 20 20 15 13 12 14 19 24 23 20 17
4 3 4 8 12 10 9 7 11 14 15 12 9 5 15 27 28 25 27 21 19 19 21 22 26 30 30 34 38 29 23 22 15 17 18 15 12 13 16 21 24 24 22 22
5 3 8 8 6 5 3 5 6 6 11 2 3 11 22 25 25 26 15 16 23 23 26 28 30 29 34 33 27 22 23 11 7 8 14 19 21 22 21 23 21 20 24 27
3 4 2 8 2 6 7 8 10 7 6 7 9 21 24 22 23 15 14 18 20 23 29 29 29 35 31 24 25 26 17 17 18 17 15 18 20 22 23 24 24 25 25 25
3 3 5 9 8 1 4 7 3 2 4 9 23 27 18 16 8 16 19 24 26 27 25 30 35 29 22 25 26 16 14 20 20 19 20 23 24 23 23 23 24 25 24 25
1 4 5 7 3 3 2 6 1 8 17 27 21 9 8 7 11 14 20 22 29 22 29 33 27 17 21 20 16 15 19 21 20 21 23 23 23 23 24 25 24 24 26 28
7 5 8 8 8 1 3 3 20 20 24 21 6 3 6 16 18 21 23 26 20 27 30 28 20 20 20 15 16 18 21 19 22 22 22 22 23 23 22 23 26 27 28 28
2 3 8 3 2 1 10 21 23 28 14 3 1 7 14 18 23 25 28 24 22 28 30 25 22 22 19 17 14 20 18 20 21 21 22 23 23 22 23 25 27 28 30 31
7 6 7 4 17 33 25 22 18 7 1 8 10 12 19 25 27 29 28 20 26 27 29 25 21 17 17 16 18 15 19 20 21 22 24 24 23 24 25 26 27 29 30 33
3 7 15 24 34 23 13 10 7 5 10 8 14 19 27 28 29 29 24 25 31 28 25 22 16 14 18 22 18 17 18 20 21 23 25 25 24 24 25 26 27 28 30 31
6 19 21 20 12 15 10 12 17 7 10 16 22 24 26 27 30 29 29 30 28 26 22 21 18 19 20 21 16 17 19 20 21 23 25 26 24 23 24 24 24 28 27 28
13 19 13 18 8 11 9 5 5 12 19 23 24 22 24 30 31 30 30 31 27 23 21 23 23 20 20 20 19 19 20 21 22 23 25 25 23 24 22 21 24 23 24 24
16 21 17 16 6 1 3 9 12 17 23 24 25 26 30 31 31 30 31 27 24 22 24 23 18 21 21 19 20 19 21 21 22 24 24 23 23 24 25 23 22 22 22 21
14 14 6 3 3 8 9 13 16 20 23 24 26 29 30 30 31 33 28 29 27 25 17 17 21 22 20 19 19 19 19 19 20 22 20 21 24 22 21 24 26 26 22 21
12 7 2 11 6 7 12 21 25 26 26 28 28 25 24 26 32 34 31 26 26 16 19 22 21 20 18 17 17 15 15 16 18 17 20 21 22 20 20 21 22 24 24 21
5 11 10 7 13 20 23 24 23 27 28 29 30 28 28 27 32 32 28 26 15 18 22 22 19 16 18 17 13 14 15 14 14 17 19 22 19 18 19 20 20 22 22 23
12 9 12 20 24 25 24 19 22 27 29 29 30 30 32 32 33 31 25 17 16 20 20 17 16 16 16 15 13 12 10 10 14 16 19 18 19 18 20 20 19 20 20 21
10 12 16 19 22 25 27 26 27 27 28 30 30 31 30 31 31 30 22 16 18 18 17 16 17 16 13 13 12 11 9 11 16 18 17 16 16 18 18 17 17 18 19 19
16 19 22 23 23 23 26 28 29 30 32 32 30 30 30 31 29 25 18 15 15 16 14 17 14 11 11 12 12 9 9 12 16 16 16 13 14 17 17 17 16 16 18 17
21 21 21 22 23 25 29 30 29 30 30 28 30 31 30 31 25 20 13 11 15 15 15 13 12 10 11 11 11 8 9 11 14 17 15 14 14 16 17 16 15 15 16 16
21 22 25 26 29 30 30 29 28 29 29 28 30 25 25 28 22 15 11 14 14 15 16 14 12 10 12 13 14 12 8 10 14 17 16 15 14 14 16 17 14 14 15 14
21 26 27 28 29 33 34 31 29 26 28 29 25 22 26 25 19 12 10 15 13 13 15 12 12 11 13 14 15 9 7 10 13 16 16 15 15 14 15 16 14 14 14 12
26 26 27 30 31 34 35 30 30 29 30 27 24 23 25 22 12 11 14 14 13 12 13 12 11 11 11 12 14 9 10 12 14 16 16 16 15 15 14 14 14 13 12 10
26 26 29 30 32 32 29 27 26 28 26 23 21 22 22 16 12 13 15 14 13 12 11 10 11 9 10 11 13 11 10 12 13 15 15 14 14 15 13 12 12 12 11 9
24 27 29 29 29 27 27 27 28 27 26 23 22 22 15 11 12 13 13 13 15 16 12 11 12 11 10 12 13 13 16 15 14 15 13 14 14 14 14 13 12 12 10 9
24 28 30 25 22 25 27 28 28 27 26 26 24 18 9 11 12 11 10 13 15 11 12 13 12 14 13 13 14 15 15 15 14 16 17 16 15 13 14 13 12 12 11 9
27 29 28 26 20 24 28 27 26 26 25 24 22 10 11 13 13 13 15 15 18 14 12 13 14 14 13 12 13 15 16 15 15 15 16 17 16 15 14 14 14 13 12 10

GFSNGP_850_spd_009.txt.gz
Wind_Speed
4 8 5 10 12 11 12 12 7 14 15 19 15 12 9 12 21 21 21 19 16 17 19 17 20 25 26 26 31 31 28 25 25 19 15 18 17 17 18 19 20 21 23 22
3 5 4 8 14 12 13 13 13 18 20 20 15 4 6 17 20 18 13 10 11 13 17 22 24 27 29 34 30 23 25 24 18 17 16 17 17 19 21 22 22 22 21 22
3 5 8 7 4 4 3 5 4 6 8 6 4 5 19 22 15 8 5 10 17 15 17 24 26 29 35 33 22 23 18 12 14 16 17 19 21 23 25 24 23 22 21 23
2 4 1 3 2 5 7 13 8 8 6 6 10 21 17 9 7 7 13 18 17 21 25 23 27 31 30 23 24 21 12 13 17 19 21 23 24 24 23 22 23 24 23 22
2 3 6 11 6 2 4 7 3 4 9 17 24 20 8 4 6 15 18 17 22 24 23 24 28 30 25 24 24 18 14 17 20 20 23 24 24 24 24 25 24 23 23 25
2 3 5 4 1 4 4 6 4 11 21 29 22 12 6 9 17 20 23 23 25 23 19 25 27 25 23 22 20 17 16 21 21 22 23 23 23 24 24 23 24 24 25 25
6 5 8 6 4 1 2 3 10 20 24 18 5 5 17 16 21 25 26 28 27 21 22 26 26 26 23 21 23 19 17 21 20 21 22 22 23 24 24 24 24 25 26 26
2 4 7 2 3 1 7 23 17 20 8 8 17 10 12 17 23 24 25 26 22 22 27 28 25 24 19 15 15 17 20 18 19 21 21 22 25 24 24 24 25 27 28 24
7 6 6 8 17 15 13 7 10 8 5 13 7 14 20 23 25 26 29 29 27 28 31 29 23 20 19 16 19 22 19 17 18 20 21 23 24 25 24 22 23 23 21 23
1 8 17 20 21 12 10 11 10 7 7 11 14 20 22 26 26 29 32 32 30 30 30 28 22 18 19 20 20 21 19 18 19 21 21 23 24 23 21 19 19 19 21 22
6 20 18 13 12 20 8 5 6 7 10 14 19 22 23 26 29 32 33 33 34 33 28 25 24 22 24 19 20 20 18 19 20 21 22 23 22 20 20 20 20 20 19 20
6 14 9 6 11 6 2 5 6 10 15 16 19 24 25 30 33 33 32 34 35 33 27 25 24 20 15 20 20 18 18 18 19 20 21 21 21 20 17 16 19 18 19 20
15 9 15 9 2 6 3 5 8 10 16 22 25 26 27 31 31 30 30 33 32 28 24 27 18 17 21 20 18 17 17 16 16 16 19 19 20 22 21 20 18 17 19 20
8 6 2 3 5 2 4 8 13 19 24 25 26 27 27 29 29 29 31 34 32 28 28 18 18 21 19 18 16 15 13 12 14 15 14 17 21 20 20 21 23 22 21 21
2 2 8 12 5 8 13 19 23 25 24 27 28 28 28 29 30 31 32 32 34 26 17 17 19 18 16 17 15 11 11 12 11 11 15 18 19 18 18 20 21 21 23 21
15 13 7 7 12 17 20 22 23 26 26 28 31 33 33 34 34 32 30 31 30 23 17 18 18 15 15 14 13 11 10 9 9 13 16 18 17 17 19 20 19 19 21 22
6 5 10 14 17 20 22 24 24 27 31 33 36 35 36 35 32 33 32 31 26 19 17 15 16 15 15 13 12 12 10 8 10 14 17 16 15 17 19 19 18 18 19 20
7 9 12 16 20 24 27 28 29 31 33 34 33 35 34 32 32 30 31 25 20 15 12 15 15 16 12 11 11 10 9 9 11 15 16 15 14 16 18 18 17 17 17 17
14 16 17 18 20 23 25 27 28 30 31 30 30 31 32 32 28 27 26 22 14 11 14 15 15 10 10 11 11 9 6 7 11 14 16 16 14 15 17 18 16 16 17 16
17 17 17 19 21 22 26 27 30 32 32 30 28 30 32 29 23 27 25 18 11 13 15 15 13 10 10 11 11 12 10 8 9 14 15 17 15 15 16 17 16 15 16 15
18 18 19 23 25 26 27 30 32 32 31 30 31 33 32 26 24 26 23 15 10 13 11 12 12 10 10 11 12 14 9 6 9 13 15 16 15 15 15 16 16 15 14 13
18 20 24 25 26 30 30 31 28 28 28 28 29 28 25 24 23 24 16 12 12 12 10 10 12 12 10 10 12 12 7 8 10 13 15 16 15 15 15 15 15 14 14 12
20 23 25 24 26 30 32 30 28 27 29 26 27 27 24 22 21 21 12 10 11 12 11 13 13 11 9 8 11 12 8 9 11 12 13 15 13 14 15 14 14 14 13 11
24 24 24 24 28 30 31 31 29 30 27 23 24 25 24 26 19 12 11 12 12 12 12 13 12 12 9 8 11 11 11 14 14 13 13 13 14 14 14 14 13 13 13 11
22 23 24 26 30 31 29 27 31 29 27 26 26 24 23 20 11 9 10 10 9 11 13 12 12 14 11 12 12 12 12 12 12 13 14 15 15 14 14 14 14 13 13 12
22 23 26 28 30 30 24 23 28 27 29 26 26 24 22 13 9 10 9 8 11 14 16 12 12 12 13 13 13 12 12 12 12 12 12 13 15 14 14 14 14 14 13 13
21 24 27 31 31 31 25 21 24 27 27 25 23 22 20 10 12 12 13 14 14 15 17 16 13 13 13 13 13 13 13 12 12 12 12 12 13 14 14 15 15 15 14 13

GFSNGP_850_spd_012.txt.gz
Wind_Speed
7 10 13 12 13 12 15 16 11 16 16 16 15 14 14 5 14 20 17 13 14 13 17 14 14 16 16 20 21 18 18 19 17 11 11 14 16 16 16 16 17 17 17 16
3 7 11 13 16 15 13 14 14 16 16 8 11 9 6 16 20 17 10 10 14 13 13 14 17 17 18 22 22 16 18 16 10 11 14 15 15 17 18 18 16 16 16 16
3 8 13 6 3 2 4 4 8 11 10 9 7 10 16 18 14 5 6 15 14 13 16 18 18 17 21 23 18 17 17 12 12 14 15 15 17 18 18 17 16 17 17 16
2 4 3 3 6 9 13 14 9 10 4 6 10 21 21 5 4 5 13 14 16 18 20 21 18 20 22 23 20 18 17 15 13 14 14 16 17 17 17 17 18 17 17 17
2 4 14 12 4 3 3 13 4 4 10 18 26 23 11 3 18 18 14 18 19 21 23 23 20 22 24 23 21 20 19 16 14 13 14 16 16 17 17 18 18 18 17 19
3 3 4 4 4 4 3 9 2 11 21 25 24 8 3 15 12 13 17 19 22 23 24 22 23 25 25 24 23 19 16 13 13 13 14 15 16 17 17 18 18 18 18 19
6 6 7 5 3 2 4 4 15 15 14 9 1 6 14 14 13 16 18 20 21 23 25 24 26 26 25 24 21 18 15 14 14 12 13 14 16 17 19 20 19 20 21 22
2 4 6 3 3 4 8 14 6 5 3 5 11 8 9 13 17 19 21 22 24 26 26 26 26 25 26 24 21 19 18 17 14 12 12 15 16 19 20 20 19 20 21 20
7 6 6 15 19 14 8 6 2 4 7 8 7 11 14 17 19 22 22 24 26 26 27 27 26 24 24 25 21 18 18 14 14 13 13 14 18 20 19 17 18 18 17 20
5 12 16 13 18 7 6 4 0 4 2 5 11 15 17 20 24 25 25 26 24 25 27 28 26 22 20 20 24 16 16 15 13 13 15 16 17 16 16 15 17 16 18 20
13 18 18 9 5 6 7 3 3 4 5 9 13 17 21 24 26 25 25 24 23 24 27 28 24 21 21 13 14 16 15 13 12 12 13 14 14 14 13 12 15 16 15 17
5 11 7 8 7 8 7 3 2 6 9 11 16 21 23 25 25 24 24 23 24 26 27 27 24 21 12 17 19 17 14 9 9 11 10 11 11 12 16 19 18 16 17 18
14 9 5 5 1 6 4 3 5 9 14 20 21 20 22 25 24 26 24 25 25 26 27 26 19 13 14 17 18 15 12 11 7 9 8 8 10 11 12 12 19 20 20 18
4 5 3 5 4 2 2 7 12 16 19 20 21 21 23 25 26 26 26 26 25 24 25 19 13 16 15 15 15 13 10 9 7 6 6 8 10 10 10 12 14 13 16 19
2 2 6 8 3 4 9 13 17 20 22 23 22 23 25 28 28 27 26 23 21 23 18 15 14 14 14 14 12 10 8 6 7 6 9 12 11 9 10 12 13 13 13 13
11 9 5 1 5 9 13 16 19 21 22 24 25 27 26 25 27 31 29 25 26 24 18 14 14 14 13 11 9 9 8 7 5 6 8 9 9 9 10 11 12 12 13 12
6 1 4 7 11 13 15 16 17 21 26 26 30 33 33 33 33 31 28 22 24 22 15 12 13 12 14 9 8 7 7 6 6 5 7 8 8 8 9 10 10 10 11 12
3 3 6 9 12 14 16 18 23 25 28 30 32 33 33 31 31 33 28 22 24 18 12 12 13 15 11 7 9 7 6 6 5 7 7 8 9 8 9 9 9 9 10 11
7 9 11 12 13 18 21 24 25 27 30 31 31 31 31 31 31 29 22 23 24 15 11 11 15 12 9 10 9 8 6 6 6 7 9 11 9 9 9 9 9 8 8 8
12 12 14 14 16 19 22 23 26 30 30 30 29 30 32 33 28 23 20 22 22 12 12 12 14 12 10 10 11 8 10 8 6 8 9 10 10 10 9 11 11 8 8 7
15 15 15 17 21 22 22 24 27 28 29 27 28 29 28 30 26 22 20 21 14 9 9 11 12 8 8 8 8 10 8 5 6 8 9 9 11 10 10 10 10 9 8 7
17 17 17 20 22 24 23 26 27 26 27 30 27 24 26 28 26 23 20 19 12 10 11 10 8 12 10 10 6 9 7 6 7 8 9 10 11 10 10 10 10 9 8 7
17 18 21 22 22 24 26 28 27 26 28 30 25 22 23 26 24 23 20 15 8 9 12 10 11 14 12 10 8 9 9 7 7 7 8 8 9 11 11 11 11 11 10 8
19 21 22 21 22 24 28 29 28 27 27 28 26 23 21 25 26 22 15 10 9 11 12 11 13 13 12 11 10 11 11 10 10 10 11 12 11 12 12 12 12 12 12 12
21 22 21 21 22 23 28 30 29 27 24 26 26 27 20 20 23 20 13 10 11 11 9 10 11 12 12 11 11 11 11 12 10 10 9 11 11 12 12 12 13 13 13 13
22 21 20 21 23 26 26 24 27 24 23 27 28 27 21 21 21 15 13 13 13 13 14 14 13 12 12 13 12 11 11 11 12 11 10 10 10 11 13 13 13 14 14 13
22 19 19 21 22 24 23 23 25 24 23 24 28 26 24 21 16 14 16 18 20 20 19 17 16 18 13 12 12 11 12 13 12 12 11 10 11 11 12 12 13 14 14 14

GFSNGP_850_spd_015.txt.gz
Wind_Speed
9 11 11 12 13 14 15 15 14 16 17 16 12 11 13 9 13 16 18 18 16 20 17 14 15 17 19 18 20 22 21 21 22 19 17 15 16 17 18 19 20 19 19 19
4 7 11 15 17 18 16 11 13 14 13 10 10 10 11 18 21 18 14 14 18 17 17 17 18 21 20 20 21 22 22 23 22 18 15 16 16 17 19 19 19 19 19 20
4 10 13 6 3 3 7 8 8 9 12 8 11 15 17 16 13 11 10 17 17 17 18 20 21 22 22 22 23 24 25 24 21 17 17 16 17 19 19 19 19 20 20 20
3 5 3 6 11 14 10 9 10 9 9 11 16 19 14 7 9 9 16 15 17 19 21 22 25 26 25 26 27 29 28 25 20 18 19 18 18 18 19 19 20 21 20 19
2 5 14 12 4 6 9 13 11 6 9 17 23 18 3 4 10 15 13 17 19 20 23 26 27 29 29 28 30 31 29 24 19 19 17 17 18 18 19 20 21 21 19 20
3 3 4 3 2 4 7 11 5 8 17 19 18 10 8 16 17 15 16 19 22 24 26 27 29 29 30 32 32 32 29 23 20 19 18 15 16 18 19 21 21 21 21 23
6 5 8 8 2 4 5 3 12 12 13 9 7 8 16 15 15 16 19 23 24 26 28 28 29 30 31 32 33 31 27 20 20 18 14 13 15 18 20 22 22 21 26 25
4 4 6 3 6 3 7 20 10 1 6 10 10 13 11 14 17 20 23 26 27 28 28 28 28 29 31 33 32 28 20 17 17 12 11 13 16 19 20 21 19 21 22 24
8 5 12 9 16 12 8 7 4 6 7 10 11 12 15 17 20 23 26 29 29 28 28 27 29 30 32 31 27 25 26 18 11 11 12 15 16 19 20 17 16 20 19 21
8 7 16 17 17 3 2 2 4 7 8 9 11 14 17 21 24 27 28 29 28 27 28 29 30 31 29 25 22 17 18 16 13 12 13 14 15 17 15 15 17 16 19 19
13 20 19 12 4 7 9 4 6 5 7 11 12 18 22 25 27 28 28 27 27 27 28 29 30 29 26 19 15 18 15 14 13 12 12 13 13 12 14 14 20 21 18 17
10 15 3 9 7 9 6 4 3 6 9 12 18 24 26 26 26 27 27 28 28 29 29 30 27 25 18 14 16 15 15 11 11 12 11 12 10 11 15 17 19 22 22 23
14 5 2 3 4 5 3 1 5 9 13 19 22 25 26 26 27 28 28 28 28 29 27 25 25 18 13 16 14 17 14 11 9 10 9 7 10 12 13 13 18 20 21 25
1 3 3 5 3 2 2 5 9 13 17 21 24 24 24 26 28 28 28 27 27 25 23 23 18 14 17 11 12 15 12 10 9 8 8 9 11 10 10 13 14 14 17 21
1 4 6 6 5 3 5 9 14 18 20 21 21 23 23 26 27 28 28 27 24 24 20 19 17 15 12 12 13 11 10 8 11 8 9 11 10 10 10 11 12 14 15 13
7 9 7 3 1 5 10 13 16 19 19 21 21 21 23 26 27 28 26 22 27 27 24 21 16 14 11 10 10 10 9 12 9 7 8 10 10 10 10 11 11 13 13 14
10 6 2 2 6 9 12 13 15 17 19 21 22 30 32 32 32 27 29 28 25 23 23 19 14 10 15 11 11 8 11 11 12 9 9 10 9 10 10 10 10 11 13 17
6 3 1 5 8 11 12 14 15 17 19 25 29 30 31 31 32 33 34 25 22 23 24 16 13 13 16 9 11 10 10 8 10 11 10 10 11 10 10 11 11 11 11 12
1 3 6 8 10 11 13 15 16 22 24 27 29 30 30 32 29 31 28 24 22 23 20 14 12 14 14 11 12 9 11 10 10 11 12 13 12 11 11 12 12 11 11 10
4 6 9 11 12 15 18 20 20 23 24 27 27 29 31 28 26 27 26 24 21 19 18 15 14 15 13 10 11 8 10 12 11 10 11 13 12 12 13 12 13 13 12 12
11 13 15 15 16 17 20 20 21 24 26 25 26 28 29 28 26 24 25 23 21 19 14 12 13 11 8 12 12 10 12 11 8 9 11 13 13 13 13 12 13 14 13 12
12 15 17 16 19 21 20 20 22 25 26 26 26 26 25 27 25 25 23 22 21 18 15 13 13 11 10 16 12 11 12 11 10 10 11 10 13 13 12 12 12 13 13 13
18 18 18 19 20 21 21 22 23 24 27 26 25 23 23 25 24 23 27 23 21 12 12 13 13 15 15 15 12 11 13 13 12 11 11 11 12 12 13 12 12 13 12 11
17 17 18 20 20 21 22 18 20 25 26 23 22 19 23 25 25 19 24 24 16 13 14 14 15 14 16 15 13 14 15 15 15 14 14 13 15 15 13 13 13 12 12 13
20 21 21 20 18 15 15 18 19 20 22 22 22 23 24 24 23 23 24 20 16 15 16 15 14 15 15 14 14 16 16 16 16 15 14 13 14 14 15 15 14 13 14 13
18 17 17 18 18 18 16 16 20 21 24 26 24 25 26 25 25 24 21 18 17 18 19 19 20 20 18 15 16 18 17 16 16 15 15 15 15 13 14 15 15 15 15 14
18 19 18 17 16 15 16 18 23 28 29 25 26 27 27 28 27 25 21 20 19 21 22 24 25 24 23 21 18 19 17 16 16 16 16 16 16 16 15 15 15 15 14 15

GFSNGP_850_spd_018.txt.gz
Wind_Speed
7 8 7 10 12 13 13 12 9 11 14 11 10 8 14 14 14 15 17 12 16 18 17 17 18 18 21 22 23 21 23 22 21 24 21 17 18 18 18 20 21 21 22 22
3 3 10 13 15 12 12 11 10 11 13 9 13 17 16 15 16 17 12 14 15 16 17 18 20 23 24 26 28 22 23 25 30 23 20 16 21 16 18 20 20 22 21 22
2 9 9 2 2 7 9 11 9 6 8 14 9 12 16 14 13 10 13 17 17 16 19 19 21 24 28 28 30 29 30 27 27 27 19 20 16 14 15 19 20 21 22 21
2 5 2 5 12 7 7 8 8 10 8 5 14 17 23 6 7 10 15 15 15 18 19 21 25 27 27 28 31 34 34 36 23 27 19 17 16 12 14 16 19 22 21 20
1 3 9 8 4 3 5 10 9 7 11 15 19 18 6 8 13 15 15 16 18 21 24 26 24 26 27 32 33 33 33 27 38 28 19 19 12 13 12 17 20 19 19 24
2 2 3 2 5 4 8 7 10 8 10 11 14 6 7 18 15 16 17 20 23 25 26 24 25 27 29 29 32 34 31 26 24 20 15 19 22 8 15 17 17 22 26 29
5 4 6 8 4 3 3 2 13 7 6 9 7 7 14 14 14 17 20 23 25 27 26 25 26 28 27 29 31 28 30 30 31 30 29 22 11 12 14 18 19 25 30 30
3 4 6 1 2 1 8 19 11 3 4 5 5 11 12 13 17 19 22 25 27 28 27 26 26 26 26 27 27 29 30 29 27 23 12 13 12 14 16 17 19 25 27 27
9 5 9 7 4 3 1 1 4 7 4 5 8 11 11 15 18 22 25 27 28 26 27 30 27 25 25 24 25 25 25 23 22 19 13 15 13 15 16 16 19 24 23 24
3 7 10 12 7 3 6 4 0 4 5 7 10 11 14 18 22 24 25 27 25 28 29 27 26 23 22 24 27 19 21 20 17 16 14 13 11 13 15 17 23 24 23 25
8 15 15 6 6 6 3 0 4 5 4 8 10 13 18 22 23 24 26 25 29 27 26 28 29 26 26 24 18 17 20 16 13 13 12 16 15 13 15 18 21 21 22 23
6 9 3 1 5 2 2 3 5 2 5 8 12 17 20 23 24 24 25 28 27 27 28 27 27 27 27 18 17 22 17 14 16 15 15 15 9 14 16 18 17 20 20 23
5 4 5 5 3 6 5 6 2 3 7 12 14 18 20 22 23 25 25 26 27 27 26 26 24 25 21 19 22 17 19 16 15 9 12 12 12 15 17 16 17 19 20 23
3 6 3 2 6 5 5 3 3 6 10 13 16 16 19 20 22 23 25 27 26 26 28 26 20 20 22 14 19 18 16 15 12 11 14 13 13 14 14 16 18 16 19 21
5 5 5 6 6 6 3 2 6 9 12 14 14 16 16 19 24 25 26 27 24 27 27 26 24 25 19 20 18 13 15 19 12 12 11 11 12 13 14 14 15 15 16 16
6 7 10 9 6 2 2 5 7 10 12 13 14 16 19 25 25 28 28 28 31 33 28 26 24 23 15 12 13 10 11 17 15 12 10 11 13 14 13 14 15 15 16 20
13 11 8 5 2 2 5 7 8 11 15 14 17 23 24 26 28 30 30 29 30 27 23 22 24 20 12 15 13 12 10 16 16 14 12 12 14 13 14 15 14 15 16 20
8 8 5 2 2 5 7 10 14 14 17 20 21 24 24 26 29 31 30 30 31 28 23 21 19 16 13 15 14 16 18 14 11 13 13 15 13 16 13 14 16 15 17 17
7 4 1 2 5 9 12 14 15 18 19 20 23 26 26 27 29 29 28 28 27 25 23 20 19 16 14 17 15 12 11 13 13 13 13 14 16 15 14 14 15 17 16 16
4 1 3 7 10 14 15 16 18 20 19 21 24 27 28 28 29 28 26 26 24 22 25 21 20 14 14 15 12 12 12 11 13 13 11 12 14 15 15 16 15 15 16 16
6 9 12 15 15 16 17 19 20 20 19 23 25 28 30 29 27 25 27 26 21 21 23 20 16 15 13 11 14 17 15 13 15 12 12 13 14 16 16 17 14 14 16 16
11 15 18 19 19 19 19 20 19 21 22 23 26 28 26 26 24 24 24 22 23 24 24 17 15 13 12 13 17 18 18 16 16 14 14 14 14 14 17 17 15 14 14 16
19 19 19 19 20 21 22 21 21 19 21 24 25 27 24 23 24 27 29 23 24 28 21 15 14 14 16 19 19 20 18 15 17 17 15 15 16 16 17 18 16 15 14 14
17 18 19 20 22 23 25 21 15 17 23 22 25 25 26 26 27 27 26 26 25 24 20 15 17 19 19 19 18 18 18 16 18 18 18 19 18 17 18 19 19 17 16 15
19 20 22 21 19 20 19 18 16 22 18 24 26 28 23 24 26 28 26 27 24 21 20 18 18 18 19 21 21 19 17 19 20 20 21 21 20 19 19 18 19 20 18 17
18 20 20 20 22 23 23 23 24 22 24 28 30 32 25 23 25 27 27 26 25 22 21 21 22 21 24 26 25 23 20 21 22 21 20 20 19 20 19 18 19 19 20 19
17 17 18 19 20 22 23 25 25 27 27 28 32 31 27 29 25 23 24 27 27 24 23 24 24 24 26 26 26 25 23 22 22 21 20 21 20 20 20 20 20 20 19 18

GFSNGP_850_spd_021.txt.gz
Wind_Speed
4 5 4 3 5 7 5 5 4 7 4 8 7 9 13 12 13 11 9 11 18 19 16 17 16 18 20 22 27 26 26 31 35 31 30 26 29 42 26 19 14 16 17 20
1 6 7 4 7 8 8 2 3 5 4 9 14 16 17 11 11 10 11 15 17 15 15 18 21 22 24 23 17 20 27 31 30 31 24 30 33 19 15 15 11 16 19 19
2 4 5 4 4 5 4 3 3 2 1 11 12 15 12 10 9 9 13 16 15 16 17 19 23 22 13 17 23 27 27 28 28 34 35 28 25 26 12 9 11 15 19 18
2 4 2 5 2 5 6 4 6 8 9 16 12 11 10 8 8 11 14 13 16 17 20 21 15 16 21 25 28 27 28 29 32 33 31 32 30 22 10 13 11 15 15 17
3 1 6 5 3 4 4 3 6 6 9 11 9 9 9 7 12 8 10 14 15 19 19 18 20 22 26 28 26 27 24 27 31 35 40 35 25 20 22 9 12 11 17 22
2 4 6 6 5 7 2 3 6 8 9 7 11 2 4 12 6 9 11 15 17 19 19 22 22 26 27 28 24 22 24 29 31 34 25 26 15 15 11 9 14 20 22 25
3 3 7 8 6 5 5 6 3 7 6 3 1 4 7 8 7 11 14 16 17 20 21 22 27 31 27 20 23 26 30 34 35 24 22 12 12 10 11 15 17 19 21 25
3 3 7 11 5 8 6 6 9 8 2 1 2 3 8 5 11 14 15 17 19 21 22 26 27 21 18 24 25 28 33 33 25 22 17 16 15 12 9 12 16 20 24 27
8 6 10 9 9 8 8 7 8 4 0 1 2 5 4 10 13 15 17 20 21 22 27 23 17 22 23 25 28 34 32 25 24 15 13 10 11 8 13 17 20 23 25 25
4 7 10 10 12 11 10 12 7 1 3 4 3 6 8 10 13 15 17 17 20 23 21 22 23 23 27 31 35 33 27 25 15 11 11 12 13 16 18 19 20 22 21 22
3 3 2 9 9 14 10 6 3 4 6 2 3 5 8 11 14 17 19 22 22 23 24 26 28 31 32 30 28 29 24 23 15 15 16 16 16 12 15 19 20 18 19 19
5 5 6 10 11 7 5 5 10 5 4 1 4 6 10 14 17 19 22 25 26 27 28 29 32 35 25 25 25 26 24 21 18 16 10 10 13 13 14 15 13 16 17 20
6 8 8 13 8 3 4 11 9 4 1 1 5 11 16 17 18 21 22 24 25 28 29 31 33 27 21 22 24 18 22 21 18 14 10 12 14 15 16 13 12 13 17 19
8 12 8 6 4 11 8 9 4 4 1 6 11 16 16 17 19 21 23 24 25 26 28 30 26 24 24 23 20 19 20 16 17 19 12 13 13 12 12 15 16 15 16 18
14 8 4 6 15 10 9 8 4 1 7 12 14 16 16 18 21 22 22 24 25 27 28 27 22 22 22 23 14 16 13 14 14 13 14 11 11 12 14 13 13 15 14 18
8 6 9 13 10 12 7 3 2 7 11 13 15 15 17 20 21 22 23 25 25 29 29 27 23 22 21 20 12 13 11 14 14 14 15 12 12 14 14 13 15 14 15 17
11 16 15 14 8 4 1 5 8 11 15 14 15 17 19 21 22 24 27 27 27 26 24 22 22 20 20 19 14 15 14 17 19 17 14 12 12 14 13 17 13 14 16 18
15 15 14 10 6 3 5 9 12 15 14 16 17 17 20 23 25 28 29 30 29 27 21 17 21 21 19 18 13 16 18 20 20 11 12 13 13 14 17 15 14 15 15 18
15 12 8 4 4 6 9 13 13 13 16 16 17 19 23 25 27 27 28 26 26 29 21 21 23 22 19 14 14 16 13 12 12 12 13 13 13 13 14 15 15 16 15 16
10 6 2 3 7 10 11 11 13 16 16 15 18 22 24 26 27 24 24 24 26 22 21 23 26 21 17 14 15 14 12 14 12 13 13 12 11 12 14 15 16 17 15 14
1 4 7 11 12 11 12 13 16 17 15 16 17 20 23 25 24 21 24 29 29 21 21 24 30 19 17 15 14 16 16 17 17 15 16 15 15 15 15 15 16 19 15 15
6 11 13 13 13 14 15 16 18 19 18 17 16 19 23 26 27 26 24 25 29 26 25 28 29 18 16 15 16 18 20 21 22 19 18 18 16 16 16 17 18 17 16 16
12 12 12 13 15 18 20 20 19 19 17 15 18 20 23 27 28 27 32 28 28 27 29 27 25 18 18 18 19 20 20 20 21 20 19 19 18 17 18 18 18 19 18 16
14 15 17 17 18 19 19 17 17 16 19 20 21 21 23 28 33 28 26 30 29 29 28 25 23 20 20 23 25 26 24 22 20 18 19 19 20 20 20 20 19 17 18 19
16 15 15 16 17 18 19 19 20 21 22 26 26 24 24 27 27 27 26 28 26 25 27 26 23 21 21 22 22 24 25 26 24 20 20 21 22 22 22 22 23 21 19 19
15 16 16 15 16 18 21 24 26 27 27 28 30 27 28 30 28 23 21 22 22 23 25 24 23 22 23 25 24 25 26 27 26 23 21 23 23 22 21 21 21 20 22 22
16 15 16 18 21 24 25 23 25 27 27 27 27 26 29 26 24 19 21 23 24 23 25 24 25 25 25 24 25 27 27 26 25 24 22 21 21 19 20 20 19 19 20 21

GFSNGP_850_spd_024.txt.gz
Wind_Speed
2 4 2 1 2 2 4 5 5 6 6 4 5 7 10 11 12 7 3 6 11 10 8 8 11 16 14 17 19 19 20 25 29 29 26 33 25 26 28 29 24 18 11 16
1 5 6 3 5 5 4 3 4 6 3 5 13 8 9 11 8 5 5 9 6 6 8 10 14 14 14 13 17 24 28 29 28 28 33 33 34 36 32 26 22 5 10 15
3 4 5 5 6 3 1 3 4 5 5 9 4 8 11 9 5 2 5 4 7 9 11 11 11 10 15 20 25 25 24 23 24 31 33 37 40 29 24 23 10 5 11 13
2 3 1 5 5 5 6 3 8 9 7 9 8 9 10 6 1 2 2 6 8 10 10 10 12 16 19 22 18 19 21 25 30 33 37 39 26 19 15 10 9 7 10 15
3 3 5 2 4 5 6 5 5 9 10 9 16 12 5 1 2 1 4 7 7 10 11 13 15 18 22 20 20 21 26 29 30 33 33 22 11 10 10 6 6 9 15 17
3 4 6 5 3 10 8 4 11 13 14 11 12 2 4 1 1 1 4 3 7 11 15 19 22 25 27 23 19 25 28 27 32 28 22 13 12 8 9 6 9 12 14 20
2 2 7 7 5 8 5 7 16 17 16 13 5 5 4 3 2 1 2 7 12 17 20 21 25 27 23 18 24 27 26 30 25 21 18 11 11 10 9 9 6 12 18 22
3 2 8 14 6 7 6 13 15 15 13 8 5 6 3 4 1 1 5 10 14 16 19 21 20 20 23 26 27 29 31 27 22 23 15 12 10 10 7 7 12 17 19 19
9 6 6 16 9 18 11 13 16 17 12 7 9 7 6 3 1 4 8 12 14 18 19 17 21 24 25 27 30 32 28 26 23 16 11 10 10 12 13 14 15 17 18 18
3 6 15 13 12 13 15 14 15 11 8 8 6 6 6 2 4 9 12 17 20 21 22 22 23 25 27 29 31 24 25 26 23 17 15 14 14 14 13 14 16 16 15 15
4 4 5 9 11 14 12 12 11 7 8 9 12 7 3 4 8 12 17 19 20 21 21 23 25 27 30 32 23 19 23 24 21 16 14 9 7 10 13 15 14 12 14 16
6 7 8 9 16 16 14 12 8 15 13 11 6 3 4 8 13 16 18 19 20 19 21 23 25 29 30 27 20 22 22 17 19 15 12 7 8 12 12 11 9 11 14 15
9 13 13 10 16 13 10 10 14 15 10 7 3 4 9 15 17 18 18 18 19 21 23 24 26 28 21 23 24 22 19 17 15 15 17 8 13 13 13 7 8 9 13 15
13 12 13 18 11 11 15 16 15 12 8 3 4 11 15 17 16 17 18 19 21 23 24 24 26 25 17 22 23 19 14 15 14 14 13 11 11 11 10 12 13 12 13 14
16 13 8 14 17 16 19 20 15 9 3 4 11 15 16 16 17 18 19 20 22 24 24 23 23 21 18 19 20 15 14 13 14 11 14 15 12 10 12 12 10 13 14 14
19 11 12 22 21 19 19 13 7 1 6 11 15 14 15 16 17 19 21 23 26 28 27 23 19 18 19 18 19 15 14 15 15 12 15 17 13 12 12 13 13 12 11 14
21 18 19 19 22 16 11 5 4 7 11 13 13 14 16 17 20 22 24 26 26 27 24 20 16 17 19 20 19 18 15 16 17 17 19 20 18 14 14 13 14 12 12 13
15 18 21 18 13 7 1 5 7 11 12 13 14 15 16 18 22 24 26 27 26 24 23 16 17 18 21 21 18 17 15 17 17 15 14 12 13 15 14 14 14 13 15 13
20 20 15 9 4 1 5 8 10 11 12 14 15 14 16 17 19 22 24 25 26 26 24 19 20 20 25 21 17 16 15 14 11 11 11 12 12 13 13 14 14 13 14 15
10 4 6 4 2 6 8 9 10 11 12 14 14 15 14 15 18 21 23 24 23 23 25 22 22 21 26 21 17 17 17 16 16 14 14 17 15 15 14 14 14 15 16 17
7 5 2 7 8 8 9 10 11 13 13 15 17 16 15 16 18 21 25 30 28 21 24 25 26 26 25 21 17 17 19 19 19 20 19 18 19 18 17 17 17 16 15 19
4 8 11 11 10 10 11 13 14 16 16 18 17 16 18 20 21 25 26 29 28 22 26 27 27 27 23 20 18 20 21 21 23 23 21 23 20 21 20 18 18 17 18 19
10 10 11 12 13 14 14 14 13 14 16 17 18 20 22 25 24 26 33 31 30 26 27 27 26 26 24 21 20 22 25 26 26 25 23 24 21 21 20 21 20 20 20 18
11 12 13 12 12 13 13 12 12 14 17 19 21 22 25 28 27 27 27 31 29 24 23 23 23 25 24 23 22 23 24 28 30 31 28 26 23 20 22 23 23 23 22 19
14 13 13 13 13 12 13 17 21 23 24 24 25 25 25 24 26 28 27 28 25 24 24 22 22 22 21 22 22 23 25 26 27 28 29 28 26 23 22 22 24 24 24 23
17 15 14 13 14 16 20 25 27 26 26 27 29 30 23 25 28 26 26 23 22 23 24 22 22 22 23 23 24 26 27 26 27 27 28 27 26 22 21 21 21 20 21 22
14 16 19 21 23 24 26 27 27 26 27 31 34 31 25 25 23 21 22 20 22 23 22 23 23 24 23 23 25 27 27 27 26 26 26 26 23 22 18 18 16 16 16 16

GFSNGP_850_spd_030.txt.gz
Wind_Speed
1 3 1 2 5 6 7 5 6 5 7 7 9 9 18 21 21 19 15 10 6 5 4 5 7 8 9 9 10 15 21 23 19 18 21 27 32 36 33 27 23 17 15 17
2 4 5 3 5 6 5 3 7 3 9 7 5 14 17 22 23 19 14 10 7 7 7 7 7 8 7 10 15 21 21 17 17 19 25 30 33 31 27 21 13 9 7 6
4 4 5 6 9 11 6 5 7 7 9 7 4 13 20 22 23 19 14 11 10 9 6 6 7 8 10 15 19 19 18 18 18 24 28 30 28 26 19 15 9 10 7 7
2 3 2 6 2 4 9 5 8 2 4 11 10 18 18 19 21 17 14 11 10 7 7 6 7 9 13 16 18 17 16 16 23 26 29 27 23 22 18 17 15 13 8 10
4 3 6 5 5 7 8 7 8 7 4 8 9 10 11 17 17 13 11 10 9 8 6 7 9 12 17 18 17 14 18 22 25 27 27 25 24 19 16 16 17 12 11 15
3 3 6 6 3 4 4 5 9 15 12 14 13 3 6 19 18 14 12 11 10 8 8 8 12 16 19 18 17 17 20 24 26 25 24 24 21 16 15 14 13 12 15 15
2 3 8 7 3 4 5 7 9 19 21 23 7 15 7 11 18 15 12 12 10 8 8 11 15 17 17 16 17 20 23 26 25 22 22 23 19 15 14 14 13 12 15 19
3 2 7 8 4 7 6 5 15 20 22 28 25 17 11 14 16 14 13 10 10 8 10 14 16 16 15 17 20 22 25 26 21 20 21 21 19 17 15 14 14 15 17 17
9 6 5 15 7 13 4 6 15 20 19 24 24 14 14 14 14 11 11 10 7 9 13 15 15 16 17 19 21 25 26 23 17 21 22 20 19 17 15 14 14 16 16 15
2 4 11 18 22 29 14 16 14 14 20 18 21 17 17 18 10 12 10 6 9 13 15 15 16 17 19 21 23 24 21 20 18 22 22 19 17 14 13 14 15 15 14 13
5 12 16 21 19 19 25 23 18 16 16 19 19 18 18 8 14 10 7 8 12 14 15 17 18 19 21 23 24 22 18 19 22 22 21 18 16 15 16 16 17 16 13 12
6 17 9 13 15 10 12 16 17 16 17 16 15 11 9 14 8 7 8 11 12 14 16 18 19 21 22 24 23 21 20 20 22 20 17 17 17 17 14 16 18 14 14 13
13 14 16 16 15 17 16 13 14 16 15 19 14 12 11 6 6 7 9 11 13 15 17 20 23 24 24 22 20 19 19 21 22 20 19 19 18 18 16 15 15 14 15 13
18 17 16 16 14 11 11 14 14 14 17 14 13 9 3 3 8 8 10 12 13 16 19 22 25 26 22 18 16 17 19 21 22 21 19 18 19 19 18 17 16 15 13 14
11 11 14 14 9 11 12 15 20 23 17 14 8 2 6 10 8 9 11 12 14 16 18 21 22 23 20 17 16 17 19 23 22 22 20 19 19 20 19 19 17 17 16 15
13 7 7 6 10 12 16 23 20 17 13 8 3 7 9 9 10 10 11 13 14 15 17 20 22 22 23 20 18 22 21 22 22 21 21 19 18 18 22 22 22 19 17 14
4 5 9 15 17 20 19 17 17 11 2 4 6 7 9 12 11 11 12 12 13 14 17 21 23 22 22 23 22 23 23 25 22 22 22 18 18 19 18 17 18 19 19 19
6 10 12 17 20 19 17 11 6 4 4 6 7 9 12 13 13 13 13 13 13 15 16 20 22 23 23 24 23 22 25 26 22 20 21 19 17 15 15 17 18 19 19 18
23 21 19 18 16 14 8 2 3 6 8 8 10 12 14 15 15 16 16 17 17 21 22 23 24 25 25 23 23 25 25 23 21 20 20 21 20 19 18 17 18 18 18 19
20 20 15 11 8 5 5 6 7 8 10 11 14 15 17 16 16 19 20 23 23 24 27 28 28 28 28 25 26 26 25 24 22 21 21 21 22 23 23 23 23 22 20 20
8 6 4 3 3 5 7 8 10 10 12 14 14 15 17 18 18 19 23 27 31 27 28 31 31 30 28 26 23 22 22 26 24 22 23 26 26 25 24 24 24 24 26 23
8 7 7 8 9 9 10 10 11 11 12 12 13 17 21 25 27 28 28 29 31 30 30 31 31 29 28 25 23 22 23 23 24 23 22 22 24 26 28 29 30 29 26 25
9 10 11 12 12 12 12 11 10 12 14 16 20 22 24 27 29 28 31 31 30 27 26 28 28 28 26 25 22 21 22 22 22 23 24 24 24 25 26 26 26 26 27 27
9 10 10 10 10 10 12 13 16 18 21 25 27 27 29 31 34 31 32 32 29 27 30 29 26 26 24 25 24 23 22 23 23 24 24 25 26 26 27 26 24 24 24 24
9 9 10 12 14 16 19 22 26 28 31 33 35 33 31 27 30 36 33 33 26 28 28 25 23 24 25 25 25 24 23 24 25 25 24 26 27 27 24 24 24 23 23 19
8 10 12 15 18 21 24 27 29 31 30 32 34 32 32 31 28 27 30 25 25 25 25 22 23 24 25 23 22 22 21 22 23 23 24 24 24 24 23 24 25 23 18 15
13 16 19 22 23 24 25 27 29 31 31 30 32 31 32 34 30 28 27 25 22 23 25 22 20 23 21 20 19 19 19 19 20 21 22 22 22 21 21 24 27 18 13 14

GFSNGP_850_spd_033.txt.gz
Wind_Speed
1 1 2 2 4 8 8 4 6 4 9 6 9 11 13 13 18 23 24 22 18 15 12 8 5 7 8 6 5 9 15 18 16 15 15 21 27 29 27 23 20 18 13 9
3 1 3 3 5 7 8 3 10 4 13 9 4 5 14 20 24 24 24 22 18 14 11 9 7 7 6 5 9 13 16 16 16 15 18 25 27 25 23 20 16 13 11 9
3 3 3 5 9 12 6 6 8 10 10 6 5 10 17 21 26 26 26 21 17 14 10 8 7 6 6 8 12 15 15 14 12 17 23 25 24 23 23 19 16 15 14 9
1 2 1 4 2 3 12 10 13 5 4 8 4 7 11 19 24 26 23 19 16 13 11 10 9 8 8 10 14 15 12 11 17 21 23 23 23 22 21 18 16 15 16 11
3 2 6 5 3 6 6 6 12 14 6 5 5 3 7 17 20 23 21 17 14 13 12 11 9 7 9 13 15 13 12 15 19 21 23 23 22 20 18 15 15 14 12 13
3 3 5 5 2 3 4 4 2 11 8 10 11 3 5 17 21 22 19 16 15 13 13 10 7 9 12 14 13 13 14 17 20 22 23 22 21 20 16 14 15 15 15 16
2 3 7 6 3 3 2 5 2 13 15 17 7 10 4 8 22 20 16 15 14 12 9 6 8 12 14 14 14 15 17 19 22 23 21 22 22 21 17 15 14 14 14 16
3 1 6 6 4 4 3 4 6 14 17 17 14 10 9 11 19 18 16 16 10 8 7 8 11 14 14 14 16 17 19 22 22 21 18 20 24 21 19 16 15 15 16 18
8 4 4 11 8 9 9 6 6 13 15 17 17 15 14 17 19 19 20 9 7 7 8 11 13 13 13 14 17 19 21 22 22 20 19 20 22 20 18 15 15 16 18 18
1 2 10 18 18 23 26 26 20 16 14 17 20 16 18 20 22 16 6 10 7 11 10 11 11 13 14 16 19 21 22 21 20 21 21 21 21 19 17 15 16 17 17 16
4 11 14 11 12 12 15 18 19 19 18 16 17 19 20 24 13 12 13 8 11 9 9 10 12 13 16 19 22 23 22 19 18 19 21 22 18 17 17 18 17 16 15 15
5 8 5 11 13 15 11 12 14 13 11 9 11 21 21 14 16 11 6 10 8 7 9 11 13 16 18 21 22 22 20 17 17 18 20 21 19 20 18 17 16 19 17 15
7 16 20 19 17 15 15 13 9 7 9 15 19 19 20 19 9 4 9 7 7 8 10 12 14 17 19 20 19 17 17 17 17 18 20 20 21 21 19 18 17 17 16 15
10 11 8 7 9 12 7 3 6 12 17 21 21 19 14 6 3 7 6 8 8 9 10 12 14 17 17 18 18 17 17 17 17 20 22 22 20 21 22 22 20 18 15 17
18 10 7 8 4 3 7 12 20 23 20 22 18 10 7 3 5 7 9 9 9 9 10 12 15 16 17 18 18 18 19 20 19 20 22 21 21 22 22 22 23 23 19 17
8 6 6 7 10 10 12 21 24 20 17 15 10 5 3 5 9 9 10 10 10 9 11 13 15 15 17 19 20 21 22 19 20 23 25 22 22 22 21 19 20 23 22 19
3 11 12 17 18 18 19 18 17 15 12 7 4 5 7 9 10 10 10 12 13 13 14 16 17 17 18 19 20 22 23 22 21 23 25 22 22 22 21 20 20 18 18 18
15 16 17 20 20 19 17 15 11 6 5 5 6 7 9 11 12 12 12 15 17 19 18 19 22 23 22 21 22 24 26 26 25 24 24 21 21 23 23 21 20 19 18 16
23 22 20 17 14 11 8 5 4 5 6 7 8 10 12 13 15 16 17 19 20 23 23 22 26 27 26 25 24 26 27 27 26 25 22 22 22 22 24 25 24 23 22 21
13 11 9 7 5 5 6 6 7 8 9 11 13 14 15 14 14 16 18 22 22 24 25 25 26 28 28 27 27 27 26 25 25 24 24 24 23 24 27 25 24 26 25 26
7 6 6 6 6 7 7 8 8 9 10 11 12 13 16 18 19 21 24 27 29 26 26 27 27 27 26 28 27 26 24 22 21 22 25 25 23 23 23 23 25 29 30 30
7 7 6 6 6 6 6 7 7 8 9 11 14 18 22 25 27 28 29 29 31 29 30 28 26 24 27 29 26 24 22 20 21 22 21 22 23 23 24 24 25 25 25 25
5 6 6 7 8 9 8 9 12 15 18 21 23 25 27 30 32 32 36 32 29 29 28 28 26 28 29 25 21 22 23 22 22 23 23 22 23 23 24 24 24 24 25 24
5 6 7 8 9 12 16 19 22 24 25 27 27 26 27 30 32 28 30 32 30 29 30 25 26 24 25 20 21 25 24 21 23 24 25 25 24 23 25 26 26 21 21 22
5 7 9 12 16 18 21 23 24 26 28 29 30 30 29 26 26 33 35 31 29 26 25 25 24 22 20 19 22 22 18 19 20 20 20 21 21 21 22 24 25 22 20 22
6 10 13 15 16 19 21 24 27 29 32 35 35 35 34 32 31 29 31 31 29 28 28 27 23 21 19 17 18 16 15 16 16 16 17 18 19 19 20 20 19 18 20 19
9 12 14 17 19 22 24 26 28 30 30 31 34 33 33 33 32 30 29 27 28 31 32 24 19 16 15 13 13 13 14 15 16 17 17 17 18 18 17 16 16 17 16 13

GFSNGP_850_spd_036.txt.gz
Wind_Speed
2 0 3 5 8 13 16 14 8 12 11 11 7 9 11 13 17 19 21 21 21 21 19 17 16 13 11 10 10 10 9 9 10 13 14 13 17 19 18 18 14 12 11 9
3 3 3 7 10 11 15 16 15 19 20 16 11 9 11 15 18 21 22 22 22 21 19 17 16 12 12 11 11 9 9 11 11 13 14 15 19 19 16 14 14 13 12 11
2 2 3 6 16 18 13 13 15 14 16 3 7 11 13 15 18 20 22 23 23 21 18 16 14 13 12 10 9 10 14 13 13 13 16 15 16 15 15 15 14 13 11 11
1 1 3 1 1 3 13 17 15 17 13 9 5 4 6 11 16 18 20 22 21 19 17 15 15 12 11 8 11 14 13 11 11 13 13 14 14 14 15 14 13 13 13 11
2 4 6 12 3 3 4 6 5 11 11 6 4 2 10 11 13 16 18 19 18 16 15 16 11 12 8 11 13 13 9 9 10 12 14 14 14 14 14 14 13 14 12 11
3 3 3 3 3 1 2 5 7 4 4 9 8 4 3 5 11 12 15 16 16 16 16 15 12 8 11 8 10 9 11 11 12 13 14 14 14 15 15 14 14 14 12 12
3 4 6 1 2 3 3 3 7 4 7 11 7 6 3 6 11 13 16 17 18 18 17 12 8 11 10 9 9 11 14 14 14 14 15 14 14 15 16 14 13 13 13 12
3 3 4 5 6 3 4 6 6 5 6 12 7 4 4 8 13 18 20 19 18 17 16 8 10 11 8 8 10 13 14 15 15 14 14 14 14 16 15 14 13 12 13 15
6 1 3 7 6 4 6 11 10 8 7 10 10 8 7 10 14 16 16 17 17 13 9 9 12 10 9 9 13 14 16 17 14 13 13 13 16 16 15 13 13 12 12 14
1 2 7 9 10 11 11 15 14 14 13 11 12 10 10 13 16 17 16 14 11 9 8 9 8 10 11 12 13 15 17 15 12 13 13 16 16 15 13 13 12 12 13 14
4 10 7 2 5 7 13 12 12 10 10 10 9 9 12 15 16 15 16 11 7 7 7 8 9 10 11 13 15 17 15 14 13 12 15 16 15 15 14 13 14 13 14 15
2 7 5 9 12 13 12 12 11 8 6 4 4 11 15 17 18 15 13 6 5 7 9 11 10 11 13 14 15 16 16 15 12 14 15 16 15 15 17 19 18 17 15 15
6 14 11 10 6 11 8 8 6 7 8 11 12 15 17 16 13 13 6 4 6 10 10 10 10 11 12 13 15 16 17 18 19 19 19 18 18 18 17 16 19 19 17 15
8 10 1 11 7 10 10 12 11 15 16 19 22 20 18 15 9 4 4 6 10 12 11 11 11 11 12 14 15 16 17 18 17 16 18 18 18 20 21 17 17 18 19 18
10 7 6 8 10 12 12 12 19 23 22 20 16 15 14 10 5 5 9 12 13 13 12 12 12 12 14 16 18 19 18 15 16 20 21 23 24 22 22 22 19 18 16 18
8 11 12 13 14 15 19 21 23 19 18 16 12 8 6 4 6 11 13 14 14 14 14 15 16 15 17 19 21 21 18 19 21 19 19 22 23 22 20 22 19 16 16 17
7 11 14 18 20 20 20 18 15 12 9 5 3 4 7 8 10 12 13 14 16 17 18 20 21 20 23 25 24 22 19 19 21 23 20 21 21 21 20 22 22 18 18 18
19 20 20 20 17 15 12 8 5 2 4 6 7 7 9 11 13 14 15 16 17 20 20 21 23 26 29 29 28 26 25 26 26 26 27 25 23 20 21 23 23 22 20 19
16 15 12 9 7 5 4 5 6 6 6 8 9 10 12 12 14 15 17 19 20 23 24 24 25 27 29 30 30 30 29 28 28 27 26 25 26 24 23 22 23 24 22 22
9 8 7 6 6 5 5 6 6 7 8 9 10 11 13 14 16 19 22 26 25 26 27 28 27 28 28 27 25 28 28 28 25 24 24 22 23 24 24 22 23 23 24 26
8 7 6 5 4 4 5 6 7 7 9 11 13 16 19 21 23 25 28 27 26 25 27 28 29 28 25 24 24 27 29 23 21 23 23 23 23 23 23 23 22 21 22 23
6 5 4 4 3 3 4 5 6 9 12 15 18 22 24 26 28 29 27 26 25 26 30 29 30 28 27 27 27 27 21 19 21 23 23 22 22 21 22 23 23 23 24 25
4 2 2 2 2 3 5 9 13 17 19 20 21 23 25 27 22 25 31 25 30 34 32 30 29 26 24 26 27 25 20 22 23 21 21 21 22 23 24 24 24 25 24 23
2 2 1 3 5 7 11 15 18 20 21 22 24 26 26 29 29 21 25 30 29 32 33 30 26 26 25 24 23 22 20 22 20 19 18 19 19 19 20 20 20 23 22 24
2 1 3 6 9 12 16 19 20 22 24 25 25 24 23 20 24 32 30 30 31 29 30 30 28 27 26 21 20 19 17 15 14 14 15 16 17 17 18 19 19 21 21 23
1 3 7 10 12 14 17 21 22 23 25 24 24 25 27 27 25 26 27 27 25 26 26 26 25 21 17 15 14 12 11 11 12 13 14 16 16 16 17 18 18 17 15 15
4 6 9 11 14 16 19 21 23 24 24 26 29 29 27 24 23 22 23 23 22 22 20 19 18 16 13 12 11 10 10 11 12 13 15 16 16 16 16 17 17 16 15 14

GFSNGP_850_spd_039.txt.gz
Wind_Speed
14 5 7 9 9 10 16 17 15 12 15 12 9 6 10 10 13 16 18 21 23 23 22 22 21 20 19 13 9 9 10 11 9 10 10 10 11 12 14 15 15 14 15 16
6 9 9 12 14 14 15 16 17 19 18 16 12 11 8 13 12 15 18 20 22 22 22 22 21 20 17 14 12 11 10 9 10 9 10 10 11 14 14 15 15 16 16 16
5 3 5 6 15 18 18 17 14 16 16 11 8 7 11 12 10 13 15 19 21 22 21 20 20 19 17 14 12 9 9 9 8 10 10 11 13 13 14 15 16 16 19 18
1 1 1 3 1 4 7 12 14 13 14 13 10 9 7 7 9 11 13 15 17 19 19 18 18 17 16 12 9 10 8 8 9 10 11 13 14 14 14 15 16 15 17 18
3 6 9 12 5 1 1 5 10 8 10 8 5 6 14 9 6 7 10 13 15 16 17 18 18 17 13 10 9 8 7 7 9 11 13 14 15 16 16 16 16 15 15 17
3 3 4 4 4 2 1 4 9 9 9 5 3 4 4 3 3 5 8 11 13 15 17 18 18 16 13 9 7 8 8 10 10 12 13 15 16 16 16 16 16 15 14 16
5 3 6 5 2 2 4 4 10 10 10 7 6 6 6 6 6 7 9 12 13 15 16 16 14 12 8 5 7 8 11 10 11 13 14 14 15 14 15 17 17 19 20 20
3 3 5 6 6 1 6 8 9 11 10 9 10 9 9 6 6 7 8 10 12 12 13 12 7 2 1 6 5 9 9 11 13 14 14 14 15 14 15 18 18 15 18 19
6 1 5 4 4 4 7 10 11 12 12 12 13 15 11 8 5 6 8 8 10 12 10 6 3 1 3 4 11 9 13 15 14 14 14 15 16 16 18 17 16 13 14 15
1 4 0 4 4 3 8 10 13 12 13 13 14 13 11 4 4 6 8 11 10 9 7 5 2 5 4 11 14 14 14 14 14 14 15 15 16 16 18 18 16 15 16 18
5 7 5 5 5 10 12 11 11 11 9 10 10 9 1 5 7 8 9 8 8 8 4 1 4 10 13 14 13 13 13 14 15 14 14 16 17 17 18 18 19 18 18 16
1 5 5 8 10 10 9 10 10 8 6 10 7 6 9 12 11 11 12 11 7 4 4 8 11 14 14 13 13 13 14 13 12 15 15 16 18 21 20 22 22 23 22 22
4 7 4 5 8 11 11 12 12 13 12 14 16 16 14 15 16 13 10 6 2 3 7 10 15 16 12 13 15 15 15 15 16 19 17 17 19 18 22 21 23 22 22 22
4 6 8 10 7 10 11 12 11 11 11 13 14 17 16 12 9 8 5 2 4 9 13 14 13 13 13 15 16 17 18 18 18 15 18 20 21 21 22 23 25 23 23 22
6 8 9 9 10 11 12 13 16 18 16 16 13 11 8 5 1 2 5 9 13 15 15 13 14 15 13 16 19 20 20 18 19 22 25 25 24 24 27 26 25 25 23 21
9 11 11 12 12 14 15 14 17 14 10 8 6 4 4 5 6 7 10 12 15 16 14 17 21 21 23 23 20 21 22 24 26 28 29 27 25 27 25 23 24 24 25 21
12 11 12 14 13 14 12 10 9 7 5 5 6 7 6 8 11 11 13 16 18 19 20 21 22 21 22 23 23 24 27 29 27 30 29 27 30 29 30 24 22 24 25 24
14 15 15 15 12 10 7 6 5 5 5 6 7 8 10 11 14 15 17 18 20 22 22 25 24 25 27 28 26 29 31 30 29 30 30 28 30 31 31 30 26 26 26 25
16 15 12 10 8 6 5 4 4 5 6 7 9 10 11 13 15 18 21 24 27 30 26 23 25 29 28 28 30 30 29 31 31 29 27 29 26 27 26 28 27 25 24 24
11 10 9 8 6 5 4 5 5 5 7 10 12 14 17 19 22 26 27 29 24 21 25 30 32 31 33 30 30 31 29 28 27 27 28 25 25 27 27 26 26 24 22 23
9 8 7 5 5 5 5 5 5 7 9 12 15 18 20 22 23 25 25 23 22 22 28 32 32 29 29 28 30 31 31 33 23 24 25 23 25 27 26 25 23 22 22 22
8 6 5 4 4 3 2 3 6 8 11 14 17 19 23 24 24 22 19 21 24 28 32 32 34 33 35 33 30 29 27 27 29 23 20 23 23 22 20 19 19 20 22 23
7 4 4 4 2 0 4 7 10 13 16 18 20 22 23 21 19 23 26 23 28 28 31 31 31 32 33 33 30 30 28 24 20 21 21 19 18 17 18 19 20 20 21 23
5 4 3 2 1 3 4 9 12 12 17 17 17 21 21 21 21 18 21 27 27 29 27 26 33 33 29 23 18 17 18 18 18 17 15 15 13 14 15 16 17 18 18 19
4 2 1 1 3 5 8 11 12 12 15 16 17 16 19 17 20 23 24 23 25 24 23 23 27 25 21 20 18 17 13 14 14 10 11 11 12 13 14 16 17 17 17 17
5 3 1 3 4 7 10 13 13 13 16 15 16 17 18 18 19 19 19 21 21 21 21 23 24 24 22 19 18 16 13 13 14 13 12 13 13 14 15 16 17 17 17 17
1 1 2 3 7 10 13 15 14 16 14 15 19 17 18 19 17 18 19 19 20 20 20 21 21 23 22 20 19 18 17 16 17 17 16 16 15 16 17 17 17 17 17 16

GFSNGP_850_spd_042.txt.gz
Wind_Speed
14 14 7 9 12 8 11 10 10 11 15 12 11 7 7 4 9 10 13 16 19 18 19 20 20 20 22 21 22 18 14 13 11 12 11 14 14 16 16 16 16 15 14 17
8 9 13 11 15 15 15 15 14 14 14 11 11 9 11 9 9 10 9 13 12 13 14 17 19 23 20 20 17 13 15 13 11 10 15 12 14 14 15 14 14 15 17 19
2 6 7 5 10 16 16 15 13 11 10 8 12 8 6 4 8 6 7 8 11 14 16 17 19 20 18 19 16 16 14 10 11 14 11 11 11 12 14 15 17 18 19 20
1 1 1 8 4 5 5 8 9 9 12 14 14 14 9 7 7 7 3 7 7 10 14 14 16 15 17 18 16 14 7 9 9 10 10 8 11 15 16 17 19 18 17 19
3 4 7 12 1 3 2 5 11 10 10 13 12 12 17 3 5 5 6 5 7 8 10 11 12 15 15 13 8 8 6 7 7 8 10 13 14 16 19 19 19 19 17 18
3 2 4 1 5 3 2 2 9 10 10 10 12 3 6 7 3 6 6 6 6 6 8 10 11 11 12 8 8 5 4 7 17 16 13 13 15 18 20 19 19 18 21 22
3 1 5 6 5 1 2 3 5 8 11 11 7 4 5 10 10 6 8 3 3 6 8 8 9 11 11 10 6 2 4 12 11 12 14 16 19 20 19 17 16 21 24 27
2 2 5 7 6 2 5 6 9 10 11 10 9 13 10 8 9 8 4 6 11 12 13 13 10 10 8 7 4 2 8 11 17 16 17 16 18 19 17 17 19 19 21 23
7 3 7 5 6 5 6 6 10 11 11 11 12 12 12 5 4 6 9 10 10 11 12 9 9 5 5 3 7 9 12 18 19 16 15 15 18 19 18 20 25 24 23 23
2 4 7 4 8 12 10 9 9 9 11 8 11 12 10 7 10 10 12 15 13 11 7 4 3 7 1 6 9 12 17 17 14 14 16 18 19 16 18 20 23 23 23 23
4 3 3 14 13 10 9 8 9 9 10 11 8 10 13 16 15 12 11 10 7 7 8 5 4 9 7 9 14 16 14 14 15 17 16 16 15 17 21 25 25 24 26 25
1 8 4 14 10 10 11 11 11 10 14 16 15 15 14 14 11 9 7 6 6 5 4 5 6 9 12 14 16 14 15 16 16 17 18 20 21 23 22 22 23 22 25 26
5 4 8 12 14 12 14 12 11 13 10 9 10 7 6 5 5 7 6 4 4 3 6 9 13 16 16 14 17 18 18 18 19 20 21 21 21 21 25 27 25 23 25 27
4 5 11 6 11 11 12 12 12 15 16 17 17 15 13 11 9 8 7 5 5 8 11 14 15 16 16 17 20 22 24 24 24 24 22 20 21 26 27 26 27 30 26 26
9 13 17 15 14 13 12 13 16 16 15 14 13 12 10 7 6 5 5 8 11 12 12 13 15 18 19 20 23 27 28 28 27 28 27 28 32 35 35 30 29 29 28 25
12 13 13 15 14 14 15 14 14 14 11 10 7 5 7 4 4 6 7 10 15 17 18 19 20 21 22 22 24 26 27 28 30 31 33 34 33 34 35 29 29 32 29 27
15 13 14 16 15 15 13 12 10 9 7 4 5 6 7 8 8 9 12 14 16 19 22 24 23 20 21 22 23 26 29 31 33 35 33 31 33 30 31 32 29 33 36 29
13 14 15 17 15 11 9 8 7 5 6 6 6 7 9 11 13 15 19 22 25 26 25 16 19 22 26 29 32 34 34 36 38 36 32 30 32 30 30 30 26 28 31 26
19 19 17 14 11 11 9 7 7 5 6 7 7 10 13 15 18 21 23 24 24 20 20 26 29 32 35 35 31 31 32 33 36 35 36 32 26 27 25 25 26 28 27 26
16 15 13 13 11 8 9 9 6 4 6 8 11 13 15 17 19 21 22 19 16 19 24 29 33 35 29 29 29 34 37 37 38 37 31 33 26 24 21 23 26 26 25 24
15 13 11 10 10 9 8 7 4 4 7 10 13 16 18 19 19 20 20 19 16 24 31 32 32 29 30 34 35 36 36 35 33 35 30 28 18 16 16 19 19 16 16 16
12 12 11 10 7 6 4 3 5 6 9 12 15 17 20 20 20 19 16 17 26 30 30 31 26 31 35 36 28 26 25 25 24 27 25 13 11 17 20 18 18 19 20 20
11 10 9 8 6 3 2 4 8 11 14 16 18 20 21 20 18 22 22 23 26 28 31 25 29 31 30 26 24 23 24 23 21 22 19 19 16 14 14 13 14 16 16 17
10 8 7 5 4 3 2 6 8 8 13 13 13 17 20 21 21 17 20 25 25 26 24 22 28 28 27 25 23 23 20 21 21 19 16 13 12 12 11 12 14 14 14 14
8 7 6 6 4 2 3 7 7 8 12 13 14 16 18 16 18 22 22 22 23 22 22 22 24 27 27 25 23 23 21 19 22 21 17 15 14 14 15 16 16 15 15 14
9 6 3 2 1 2 6 9 10 11 14 14 15 18 15 18 19 20 18 20 21 21 22 22 22 24 26 26 23 22 22 21 21 22 20 18 17 17 18 18 17 16 16 15
6 7 4 2 4 6 10 11 12 14 13 16 19 15 13 16 20 19 19 17 20 21 22 22 21 22 24 24 22 21 21 22 20 21 21 20 19 19 18 18 17 18 17 16

GFSNGP_850_spd_045.txt.gz
Wind_Speed
4 5 5 2 1 4 6 6 6 9 8 9 5 5 5 17 11 6 8 24 29 34 36 34 31 30 26 28 30 28 22 15 7 12 13 15 11 18 22 22 21 21 17 16
1 5 7 4 7 6 7 6 3 2 4 5 5 11 13 13 11 11 11 8 9 15 28 29 28 25 23 29 30 23 16 8 14 13 14 14 16 16 17 19 21 19 19 21
2 4 6 6 7 6 6 4 3 2 4 8 10 11 13 14 17 11 10 11 5 8 12 18 22 23 26 26 21 16 15 18 13 16 15 7 14 14 17 19 21 23 24 24
3 3 2 9 2 5 7 7 8 8 7 10 12 25 23 19 18 19 16 11 8 3 5 8 12 20 19 18 17 19 21 15 8 6 1 7 8 14 16 18 21 24 26 27
4 4 4 7 1 2 4 4 6 8 8 14 12 20 21 18 15 15 12 9 6 2 4 10 16 18 20 22 20 16 11 7 3 3 4 9 12 16 22 23 22 23 24 24
2 4 6 6 3 5 3 1 7 13 9 13 15 5 3 11 15 8 8 4 7 13 16 18 19 20 21 19 17 14 8 7 3 4 6 12 14 21 22 23 25 22 24 22
3 2 7 5 6 2 6 5 9 13 13 12 5 4 3 6 9 8 8 13 18 18 19 20 18 17 19 19 15 10 7 0 11 8 8 16 23 24 21 19 20 18 21 24
3 2 5 9 5 6 6 14 15 14 13 10 9 9 9 12 13 12 13 14 12 14 18 17 15 14 15 12 9 3 13 19 10 11 19 22 18 16 19 23 22 21 25 28
7 6 6 20 25 22 20 18 14 13 8 5 7 12 11 19 18 15 13 13 12 10 11 8 5 2 4 9 17 22 14 8 14 20 17 14 15 19 22 23 22 24 26 28
5 1 11 22 23 18 15 15 12 10 6 7 6 8 17 18 18 17 14 12 8 5 6 9 12 12 8 6 8 11 11 16 18 16 15 17 20 20 18 19 23 26 26 29
4 13 22 19 18 17 15 14 11 8 9 12 10 16 16 15 13 11 9 10 9 9 7 4 3 5 7 7 10 15 17 16 15 17 18 19 19 20 21 23 25 29 30 29
4 9 17 13 19 15 14 16 11 7 10 12 11 13 11 14 14 11 10 9 8 10 9 8 7 8 12 15 16 17 18 19 20 20 21 22 23 25 21 19 21 21 22 23
7 16 23 21 15 11 13 12 11 11 14 14 15 13 14 16 15 13 12 11 12 10 7 7 12 13 12 15 17 19 22 22 23 26 27 27 25 26 29 30 29 30 26 24
21 26 20 11 12 12 14 15 16 19 20 21 21 19 18 17 15 14 12 7 6 8 8 8 10 12 14 15 18 20 24 28 31 34 31 30 31 32 33 31 33 34 31 25
13 9 21 22 17 18 17 19 22 23 22 20 15 15 13 13 10 5 3 5 8 10 10 12 13 14 16 18 20 22 24 26 28 31 33 35 36 36 36 36 37 33 32 29
22 23 24 22 22 19 21 22 21 18 16 12 8 7 6 4 4 4 6 9 12 15 16 16 16 17 18 20 22 25 27 29 30 33 36 37 37 37 34 30 31 32 31 32
28 24 23 24 23 21 19 19 17 13 9 8 8 8 7 7 6 7 10 13 16 16 15 15 16 21 25 28 30 32 32 33 32 33 35 35 35 34 35 29 30 28 26 26
15 20 22 25 25 21 17 13 12 11 10 10 9 8 7 8 11 13 15 17 15 13 15 19 23 26 29 30 29 28 29 32 35 38 39 39 37 37 37 37 27 24 23 23
22 23 21 20 19 16 15 15 13 12 11 9 6 8 10 11 13 15 15 14 15 17 19 23 29 30 27 26 28 30 31 31 32 34 34 32 34 34 32 24 21 18 18 20
27 24 22 20 15 14 17 13 11 10 8 6 7 7 10 12 13 13 14 12 13 17 23 28 28 28 29 31 31 28 24 25 27 29 30 31 33 35 35 25 8 10 13 12
19 18 17 16 17 16 13 10 7 6 5 5 7 10 11 12 12 14 15 15 18 23 26 27 26 28 29 29 28 27 26 25 23 26 28 27 21 20 18 11 9 12 14 15
19 18 16 15 14 15 11 8 5 4 4 7 9 10 12 13 14 15 11 15 20 26 26 23 25 26 26 26 25 25 23 23 25 25 25 22 18 17 16 15 15 14 13 12
18 17 15 12 11 10 8 4 2 4 7 9 12 15 16 15 15 15 15 20 23 24 22 21 23 24 24 24 24 24 22 23 25 24 22 20 19 17 16 16 17 17 15 14
18 16 13 12 10 6 4 5 2 5 8 8 12 15 15 14 14 15 18 19 20 21 21 20 22 24 25 25 25 24 23 23 24 23 22 20 19 19 20 20 20 19 17 15
14 14 14 11 8 6 3 2 3 6 8 10 13 14 13 13 16 18 21 19 18 20 21 22 23 22 24 26 26 25 24 23 22 22 21 21 21 21 21 20 19 18 17 16
13 12 12 10 7 4 1 3 6 9 11 12 13 15 12 13 15 19 21 19 19 19 21 23 22 23 23 23 23 24 23 23 22 22 22 21 21 21 20 20 19 19 18 18
11 8 7 5 2 2 5 7 9 10 12 14 15 14 11 13 17 20 20 21 22 18 19 21 21 22 22 19 21 23 22 22 21 21 21 21 22 21 21 20 20 19 20 20

GFSNGP_850_spd_048.txt.gz
Wind_Speed
5 4 3 1 1 2 3 4 5 7 7 8 4 5 5 15 3 5 28 31 35 37 38 40 39 38 35 32 31 34 33 28 22 18 18 18 16 15 10 9 11 14 18 22
3 2 3 3 2 3 4 3 4 4 2 6 8 15 18 12 16 14 9 2 19 30 31 33 37 36 35 35 32 30 27 23 19 17 21 17 14 13 9 8 12 18 21 22
4 3 3 5 6 6 3 2 5 5 5 4 8 11 11 17 17 15 14 10 7 5 11 25 27 28 31 31 28 25 22 16 17 22 20 16 11 7 5 12 19 17 22 23
3 2 1 7 4 4 11 5 7 8 5 8 15 20 18 17 19 17 14 12 10 8 10 16 19 22 23 25 27 24 20 22 21 17 13 10 5 7 21 14 13 22 23 22
4 4 4 5 6 6 6 0 0 6 5 10 19 22 18 12 13 11 8 7 6 7 11 18 20 22 26 29 25 24 23 21 18 15 6 10 23 19 9 16 21 23 23 26
2 4 7 7 3 9 6 1 5 11 5 6 7 3 2 11 7 9 10 8 6 10 8 16 21 26 28 27 26 24 19 14 6 10 24 17 9 12 18 21 22 18 18 20
2 3 7 7 6 6 6 6 11 16 13 9 4 5 15 12 11 11 11 13 13 15 13 19 23 25 25 23 20 15 9 3 18 19 7 7 13 18 21 20 18 19 22 21
3 3 6 8 5 7 7 15 19 16 14 18 15 19 18 16 17 17 17 18 17 18 21 19 17 13 8 6 8 10 18 15 12 8 8 15 20 19 16 18 20 22 25 25
8 5 3 3 12 23 25 24 16 16 15 13 18 20 18 18 17 17 16 16 14 14 15 13 9 4 2 4 8 9 8 7 7 11 16 18 18 18 19 21 23 26 24 27
5 4 5 19 22 23 21 20 17 14 12 9 16 17 18 18 18 18 17 16 13 10 9 7 5 6 6 5 6 7 9 12 16 17 17 17 18 20 22 23 25 26 27 28
5 2 15 13 18 22 21 18 15 14 12 12 14 18 19 20 19 17 14 11 8 8 9 8 5 6 7 9 11 13 15 16 17 18 20 21 22 24 25 26 26 27 25 24
5 19 9 10 18 20 18 16 15 15 18 16 16 22 20 20 17 13 14 14 13 11 8 7 8 9 9 9 11 15 18 19 21 23 24 26 29 31 29 29 28 28 26 25
10 25 19 24 19 15 16 16 15 16 17 20 19 17 16 20 19 17 14 12 10 8 6 6 6 7 10 12 14 17 20 23 24 27 29 31 32 34 36 36 34 35 33 36
28 32 23 22 14 17 17 18 18 22 23 24 25 22 21 19 16 12 10 8 6 5 5 6 8 10 12 15 17 18 20 21 24 26 28 30 31 33 34 36 39 38 33 34
24 5 22 24 23 21 21 26 29 29 26 23 19 19 16 14 11 9 5 4 4 5 6 8 10 12 16 19 22 25 28 30 33 34 35 37 38 40 41 41 38 38 38 32
19 22 27 26 25 25 27 28 28 25 22 20 18 15 12 9 7 5 3 3 6 8 9 10 13 17 20 24 27 30 32 32 32 33 35 37 37 39 39 35 35 35 33 33
32 23 26 26 29 29 25 23 24 21 19 15 14 12 10 9 6 3 5 6 8 8 11 14 18 21 25 28 30 30 31 32 31 31 31 32 33 33 34 33 34 33 35 29
12 24 23 28 31 28 25 21 19 17 15 15 14 11 8 5 4 5 6 6 7 9 12 16 20 25 26 26 27 27 27 26 27 26 27 28 27 29 34 36 38 35 34 31
22 26 29 27 26 24 20 19 17 16 15 13 10 7 5 4 4 6 7 9 11 14 18 22 25 24 24 24 24 24 24 25 24 24 26 27 28 26 30 31 22 19 20 7
29 29 29 26 21 18 21 18 17 16 13 9 6 5 3 3 5 7 10 12 13 15 19 23 22 22 22 22 22 22 23 23 24 25 25 25 23 24 22 25 24 21 18 14
29 27 25 21 20 19 17 16 14 12 10 6 3 3 4 5 8 9 10 11 14 17 20 20 20 21 21 22 22 21 22 22 23 24 24 23 22 22 22 22 23 22 22 18
26 22 22 21 20 19 16 13 10 8 6 2 2 4 5 7 9 11 12 12 15 17 18 19 20 21 22 22 22 22 22 22 22 22 22 22 21 22 23 23 24 24 23 20
24 21 17 17 19 17 15 10 8 5 2 2 5 7 9 10 10 11 12 15 16 17 17 20 21 22 24 24 23 22 22 21 22 21 21 21 21 21 22 23 22 22 21 20
19 19 19 17 15 14 12 9 5 1 3 4 6 9 10 9 11 12 13 15 17 18 19 20 22 24 23 23 23 22 22 21 21 21 21 21 21 21 21 21 21 21 20 20
22 19 18 18 15 12 9 8 4 3 4 6 7 10 10 11 12 12 14 17 18 19 21 21 22 22 22 22 22 22 22 21 20 21 20 20 21 22 22 21 21 21 21 20
21 20 18 14 11 9 7 6 6 5 7 8 9 10 10 11 12 13 16 19 19 22 21 21 21 21 20 22 21 21 21 19 19 20 20 20 21 22 21 21 21 21 21 22
18 17 15 12 9 6 5 4 5 7 8 10 11 12 12 12 14 16 18 20 21 21 19 19 20 20 20 20 20 20 20 19 19 19 19 20 21 22 22 22 22 22 23 23